KO4RJX-11 Weather Reports


Display with metric or nautical units.
time (UTC)temp
F
wind
direction
speed
MPH
gust
MPH
rain 1hr
in
rain 24hr
in
rain mn
in
humidity
%
barometer
mb
20260505212627 79 215 8.0 18.0 0.00 0.00 0.00 38 1009.3
20260505212159 79 204 8.0 12.0 0.00 0.00 0.00 37 1009.3
20260505211519 80 179 6.0 14.0 0.00 0.00 0.00 37 1009.3
20260505210627 80 234 7.0 13.0 0.00 0.00 0.00 37 1009.3
20260505205947 80 189 6.0 12.0 0.00 0.00 0.00 38 1009.7
20260505205307 80 197 6.0 10.0 0.00 0.00 0.00 37 1009.7
20260505204627 79 198 6.0 13.0 0.00 0.00 0.00 39 1009.7
20260505203947 79 210 7.0 13.0 0.00 0.00 0.00 38 1009.7
20260505203518 79 206 6.0 13.0 0.00 0.00 0.00 38 1009.7
20260505202627 79 206 6.0 12.0 0.00 0.00 0.00 39 1009.7
20260505201947 80 191 7.0 13.0 0.00 0.00 0.00 36 1009.7
20260505201307 80 213 5.0 12.0 0.00 0.00 0.00 37 1009.7
20260505200627 80 188 5.0 10.0 0.00 0.00 0.00 37 1009.7
20260505195948 79 178 5.0 12.0 0.00 0.00 0.00 38 1010.0
20260505195307 80 186 4.0 13.0 0.00 0.00 0.00 37 1010.0
20260505194627 82 195 5.0 14.0 0.00 0.00 0.00 35 1010.0
20260505193947 80 235 7.0 16.0 0.00 0.00 0.00 35 1010.0
20260505193307 79 221 6.0 13.0 0.00 0.00 0.00 36 1010.3
20260505192628 78 174 5.0 16.0 0.00 0.00 0.00 37 1010.3
20260505192200 79 228 9.0 16.0 0.00 0.00 0.00 36 1010.7
20260505191521 80 215 5.0 11.0 0.00 0.00 0.00 35 1010.7
20260505190627 80 219 6.0 10.0 0.00 0.00 0.00 35 1010.7
20260505185947 80 199 4.0 11.0 0.00 0.00 0.00 36 1010.7
20260505185517 79 203 6.0 11.0 0.00 0.00 0.00 36 1011.0
20260505184838 80 225 6.0 11.0 0.00 0.00 0.00 36 1011.0
20260505183948 79 221 4.0 15.0 0.00 0.00 0.00 37 1011.0
20260505183307 79 185 6.0 14.0 0.00 0.00 0.00 36 1011.4
20260505182627 78 210 8.0 14.0 0.00 0.00 0.00 37 1011.4
20260505181947 79 238 3.0 13.0 0.00 0.00 0.00 39 1011.4
20260505181307 79 186 4.0 12.0 0.00 0.00 0.00 39 1011.4
20260505180627 78 215 6.0 12.0 0.00 0.00 0.00 38 1011.4
20260505175948 79 175 7.0 12.0 0.00 0.00 0.00 36 1011.4
20260505175518 79 231 6.0 14.0 0.00 0.00 0.00 38 1011.4
20260505174627 78 200 6.0 14.0 0.00 0.00 0.00 39 1011.4
20260505173947 78 197 8.0 14.0 0.00 0.00 0.00 39 1011.4
20260505173307 78 203 6.0 14.0 0.00 0.00 0.00 39 1011.4
20260505172627 78 180 7.0 14.0 0.00 0.00 0.00 39 1011.7
20260505171948 77 203 7.0 13.0 0.00 0.00 0.00 41 1011.7
20260505171308 77 220 4.0 12.0 0.00 0.00 0.00 41 1011.7
20260505170627 77 252 6.0 11.0 0.00 0.00 0.00 41 1011.7
20260505165947 77 229 6.0 13.0 0.00 0.00 0.00 42 1011.7
20260505165307 76 177 6.0 14.0 0.00 0.00 0.00 44 1011.7
20260505164627 76 216 6.0 15.0 0.00 0.00 0.00 43 1011.7
20260505163948 77 220 8.0 14.0 0.00 0.00 0.00 42 1012.0
20260505163307 76 205 4.0 14.0 0.00 0.00 0.00 44 1012.0
20260505162627 76 184 4.0 13.0 0.00 0.00 0.00 45 1012.0
20260505161947 76 198 4.0 13.0 0.00 0.00 0.00 46 1012.0
20260505161307 75 198 7.0 11.0 0.00 0.00 0.00 48 1012.0
20260505160627 76 174 5.0 9.0 0.00 0.00 0.00 47 1012.4
20260505160159 75 247 3.0 11.0 0.00 0.00 0.00 49 1012.4
20260505153308 73 213 4.0 12.0 0.00 0.00 0.00 51 1012.4
20260505152627 73 246 2.0 12.0 0.00 0.00 0.00 51 1012.4
20260505151947 72 232 6.0 10.0 0.00 0.00 0.00 51 1012.7
20260505151307 72 182 5.0 10.0 0.00 0.00 0.00 53 1012.7
20260505150627 71 190 5.0 10.0 0.00 0.00 0.00 54 1012.7
20260505140627 68 217 6.0 17.0 0.00 0.00 0.00 59 1012.4
20260505124627 63 223 4.0 9.0 0.00 0.00 0.00 68 1012.7
20260505123947 62 225 3.0 9.0 0.00 0.00 0.00 70 1012.7
20260505123307 61 217 4.0 9.0 0.00 0.00 0.00 70 1012.7
20260505122627 61 204 4.0 8.0 0.00 0.00 0.00 70 1012.7
20260505121947 60 206 4.0 8.0 0.00 0.00 0.00 70 1012.4
20260505121307 60 208 4.0 8.0 0.00 0.00 0.00 71 1012.4
20260505120627 59 226 3.0 9.0 0.00 0.00 0.00 73 1012.4
20260505115947 59 231 5.0 9.0 0.00 0.00 0.00 72 1012.4
20260505115306 59 196 2.0 6.0 0.00 0.00 0.00 74 1012.4
20260505114626 58 207 3.0 6.0 0.00 0.00 0.00 74 1012.4
20260505113946 58 217 3.0 6.0 0.00 0.00 0.00 74 1012.4
20260505113519 58 197 2.0 4.0 0.00 0.00 0.00 76 1012.4
20260505112839 57 202 2.0 3.0 0.00 0.00 0.00 78 1012.4
20260505111946 56 168 2.0 4.0 0.00 0.00 0.00 79 1012.0
20260505111306 56 185 2.0 4.0 0.00 0.00 0.00 79 1012.0
20260505110627 55 182 2.0 4.0 0.00 0.00 0.00 81 1012.0
20260505101947 55 207 3.0 5.0 0.00 0.00 0.00 79 1011.4
20260505101307 55 190 2.0 5.0 0.00 0.00 0.00 79 1011.4
20260505100626 55 197 2.0 5.0 0.00 0.00 0.00 80 1011.4
20260505095946 55 188 2.0 5.0 0.00 0.00 0.00 79 1011.4
20260505095306 55 191 2.0 5.0 0.00 0.00 0.00 78 1011.4
20260505094626 56 202 2.0 5.0 0.00 0.00 0.00 78 1011.0
20260505093946 55 192 3.0 5.0 0.00 0.00 0.00 78 1011.0
20260505093520 55 202 3.0 4.0 0.00 0.00 0.00 78 1011.0
20260505092626 56 215 2.0 4.0 0.00 0.00 0.00 77 1011.0
20260505091946 56 219 2.0 4.0 0.00 0.00 0.00 77 1011.0
20260505091306 56 204 2.0 5.0 0.00 0.00 0.00 76 1011.0
20260505090838 56 231 2.0 5.0 0.00 0.00 0.00 76 1011.0
20260505085946 56 214 2.0 4.0 0.00 0.00 0.00 75 1011.0
20260505085307 56 225 2.0 4.0 0.00 0.00 0.00 75 1011.0
20260505084626 57 199 2.0 4.0 0.00 0.00 0.00 74 1011.0
20260505083946 57 214 2.0 4.0 0.00 0.00 0.00 74 1010.7
20260505083516 57 195 2.0 4.0 0.00 0.00 0.00 73 1010.7
20260505082626 57 210 2.0 3.0 0.00 0.00 0.00 73 1010.7
20260505081946 58 205 1.0 4.0 0.00 0.00 0.00 72 1010.7
20260505081517 58 210 2.0 5.0 0.00 0.00 0.00 71 1010.7
20260505080627 58 212 2.0 5.0 0.00 0.00 0.00 71 1010.7
20260505080159 58 204 2.0 5.0 0.00 0.00 0.00 70 1010.7
20260505075306 58 200 3.0 5.0 0.00 0.00 0.00 70 1010.7
20260505074627 58 204 3.0 7.0 0.00 0.00 0.00 69 1010.7
20260505073947 59 204 4.0 7.0 0.00 0.00 0.00 69 1010.7
20260505073307 59 190 3.0 7.0 0.00 0.00 0.00 68 1010.7
20260505072627 59 197 3.0 6.0 0.00 0.00 0.00 68 1010.7
20260505072157 59 201 4.0 6.0 0.00 0.00 0.00 68 1010.7
20260505071307 59 217 4.0 6.0 0.00 0.00 0.00 68 1010.7
20260505070627 59 202 3.0 6.0 0.00 0.00 0.00 68 1010.7
20260505070159 59 201 3.0 7.0 0.00 0.00 0.00 68 1010.7
20260505065308 59 189 2.0 6.0 0.00 0.00 0.00 67 1010.7
20260505064627 60 183 3.0 6.0 0.00 0.00 0.00 66 1010.3
20260505063947 60 190 2.0 7.0 0.00 0.00 0.00 65 1010.7
20260505063308 60 174 3.0 8.0 0.00 0.00 0.00 66 1010.7
20260505062627 60 182 2.0 6.0 0.00 0.00 0.00 65 1010.3
20260505062158 60 183 3.0 7.0 0.00 0.00 0.00 64 1010.7
20260505061308 60 205 4.0 7.0 0.00 0.00 0.00 64 1010.7
20260505060628 61 187 3.0 6.0 0.00 0.00 0.00 64 1010.7
20260505055948 61 187 3.0 6.0 0.00 0.00 0.00 63 1010.7
20260505055308 61 194 3.0 8.0 0.00 0.00 0.00 63 1010.7
20260505054628 61 196 3.0 7.0 0.00 0.00 0.00 62 1010.7
20260505054157 61 209 3.0 6.0 0.00 0.00 0.00 62 1010.7
20260505053307 62 192 3.0 6.0 0.00 0.00 0.00 61 1010.7
20260505052627 62 193 3.0 7.0 0.00 0.00 0.00 61 1010.7
20260505051947 62 199 4.0 7.0 0.00 0.00 0.00 61 1010.7
20260505051307 62 206 4.0 7.0 0.00 0.00 0.00 60 1010.7
20260505050840 62 206 4.0 8.0 0.00 0.00 0.00 60 1011.0
20260505050200 63 205 5.0 8.0 0.00 0.00 0.00 60 1011.0
20260505041307 63 201 4.0 9.0 0.00 0.00 0.00 59 1010.7
20260505040627 63 192 5.0 8.0 0.00 0.00 0.00 59 1011.0
20260505035947 64 205 5.0 12.0 0.00 0.00 0.00 59 1010.7
20260505035307 64 190 5.0 11.0 0.00 0.00 0.00 58 1010.7
20260505034627 64 188 3.0 10.0 0.00 0.00 0.00 58 1010.7
20260505034158 64 202 5.0 8.0 0.00 0.00 0.00 58 1010.7
20260505033308 64 215 5.0 8.0 0.00 0.00 0.00 58 1010.7
20260505032627 64 187 4.0 8.0 0.00 0.00 0.00 58 1010.7
20260505031947 64 188 4.0 9.0 0.00 0.00 0.00 57 1010.7
20260505031307 64 201 4.0 12.0 0.00 0.00 0.00 57 1010.7
20260505030627 64 203 7.0 12.0 0.00 0.00 0.00 56 1010.7
20260505025947 65 210 4.0 9.0 0.00 0.00 0.00 57 1010.7
20260505025307 65 194 4.0 8.0 0.00 0.00 0.00 57 1010.7
20260505024627 65 196 3.0 8.0 0.00 0.00 0.00 56 1010.7
20260505023947 65 197 4.0 10.0 0.00 0.00 0.00 56 1010.7
20260505023307 66 193 4.0 10.0 0.00 0.00 0.00 56 1010.7
20260505022627 66 187 5.0 9.0 0.00 0.00 0.00 55 1010.7
20260505021947 66 202 4.0 10.0 0.00 0.00 0.00 55 1010.7
20260505021308 67 196 6.0 9.0 0.00 0.00 0.00 55 1010.7
20260505020627 67 194 4.0 14.0 0.00 0.00 0.00 55 1010.7
20260505015948 67 210 7.0 14.0 0.00 0.00 0.00 55 1010.3
20260505015307 67 208 6.0 9.0 0.00 0.00 0.00 54 1010.3
20260505014628 68 198 4.0 13.0 0.00 0.00 0.00 54 1010.3
20260505013947 68 213 6.0 13.0 0.00 0.00 0.00 53 1010.3
20260505013307 68 178 5.0 8.0 0.00 0.00 0.00 52 1010.0
20260505012627 68 188 4.0 9.0 0.00 0.00 0.00 49 1010.0
20260505011947 69 192 3.0 8.0 0.00 0.00 0.00 47 1010.0
20260505011517 69 184 4.0 8.0 0.00 0.00 0.00 45 1010.0
20260505010837 69 190 3.0 7.0 0.00 0.00 0.00 42 1009.7
20260505010158 70 186 4.0 9.0 0.00 0.00 0.00 40 1009.7
20260505005307 70 183 2.0 5.0 0.00 0.00 0.00 40 1009.3
20260505004627 70 181 3.0 5.0 0.00 0.00 0.00 38 1009.3
20260505003947 70 203 3.0 5.0 0.00 0.00 0.00 38 1009.3
20260505003307 71 193 2.0 6.0 0.00 0.00 0.00 37 1009.0
20260505002627 71 197 3.0 6.0 0.00 0.00 0.00 36 1009.0
20260505002157 71 194 2.0 5.0 0.00 0.00 0.00 36 1009.0
20260505001307 72 199 3.0 7.0 0.00 0.00 0.00 36 1009.0
20260505000627 72 200 2.0 7.0 0.00 0.00 0.00 35 1009.0
20260504235947 73 200 3.0 7.0 0.00 0.00 0.00 34 1009.0
20260504235308 73 184 3.0 6.0 0.00 0.00 0.00 34 1009.0
20260504234627 74 218 3.0 7.0 0.00 0.00 0.00 33 1009.0
20260504234200 74 193 3.0 7.0 0.00 0.00 0.00 33 1008.6
20260504233307 74 195 3.0 8.0 0.00 0.00 0.00 32 1008.6
20260504232627 75 201 4.0 8.0 0.00 0.00 0.00 32 1008.6
20260504231947 75 196 4.0 10.0 0.00 0.00 0.00 31 1008.6
20260504231307 75 205 4.0 12.0 0.00 0.00 0.00 31 1008.6
20260504230627 76 223 5.0 12.0 0.00 0.00 0.00 30 1008.3
20260504225947 76 192 5.0 10.0 0.00 0.00 0.00 30 1008.6
20260504225307 76 210 5.0 11.0 0.00 0.00 0.00 30 1008.3
20260504224840 76 205 4.0 12.0 0.00 0.00 0.00 30 1008.3
20260504224201 76 203 7.0 13.0 0.00 0.00 0.00 29 1008.3
20260504223517 77 203 5.0 11.0 0.00 0.00 0.00 28 1008.6
20260504222627 77 204 5.0 11.0 0.00 0.00 0.00 28 1008.6
20260504221947 77 201 7.0 11.0 0.00 0.00 0.00 28 1008.6
20260504221307 77 197 6.0 11.0 0.00 0.00 0.00 28 1008.6
20260504220627 77 218 5.0 9.0 0.00 0.00 0.00 28 1008.6
20260504215947 77 206 6.0 13.0 0.00 0.00 0.00 27 1008.3
20260504215307 78 201 7.0 13.0 0.00 0.00 0.00 27 1008.6
20260504214627 78 185 6.0 10.0 0.00 0.00 0.00 27 1008.6
20260504213948 78 203 5.0 8.0 0.00 0.00 0.00 27 1008.6